Time,TemperatureF,DewpointF,PressureIn,WindDirection,WindDirectionDegrees,WindSpeedMPH,WindSpeedGustMPH,Humidity,HourlyPrecipIn,Conditions,Clouds,dailyrainin,SoftwareType,DateUTC
2013-04-01 00:00:00,40.6,35.0,29.35,NW,306,0.0,0.0,80,0.00,,---,0.00,VWS V13.01,2013-04-01 04:00:00,
2013-04-01 00:01:00,40.6,35.0,29.35,NW,306,0.0,0.0,80,0.00,,---,0.00,VWS V13.01,2013-04-01 04:01:00,
2013-04-01 00:07:00,40.6,35.3,29.35,NW,306,0.0,0.0,81,0.00,,---,0.00,VWS V13.01,2013-04-01 04:07:00,
2013-04-01 00:12:00,40.5,34.8,29.35,NW,306,0.0,0.0,80,0.00,,---,0.00,VWS V13.01,2013-04-01 04:12:00,
2013-04-01 00:17:00,40.6,35.0,29.35,NW,306,0.0,0.0,80,0.00,,---,0.00,VWS V13.01,2013-04-01 04:17:00,
2013-04-01 00:22:00,40.6,35.0,29.35,NW,306,0.0,0.0,80,0.00,,---,0.00,VWS V13.01,2013-04-01 04:22:00,
2013-04-01 00:28:00,40.6,35.3,29.35,NW,306,0.0,0.0,81,0.00,,---,0.00,VWS V13.01,2013-04-01 04:28:00,
2013-04-01 00:33:00,40.5,35.1,29.35,NW,306,0.0,0.0,81,0.00,,---,0.00,VWS V13.01,2013-04-01 04:33:00,
2013-04-01 00:38:00,40.5,35.1,29.35,NW,306,0.0,0.0,81,0.00,,---,0.00,VWS V13.01,2013-04-01 04:38:00,
2013-04-01 00:43:00,40.3,35.2,29.35,NW,306,0.0,0.0,82,0.00,,---,0.00,VWS V13.01,2013-04-01 04:43:00,
2013-04-01 00:48:00,40.3,35.2,29.35,NW,306,0.0,0.0,82,0.00,,---,0.00,VWS V13.01,2013-04-01 04:48:00,
2013-04-01 00:54:00,40.3,35.2,29.35,NW,306,0.0,0.0,82,0.00,,---,0.00,VWS V13.01,2013-04-01 04:54:00,
2013-04-01 00:59:00,40.3,35.2,29.35,NW,306,0.0,0.0,82,0.00,,---,0.00,VWS V13.01,2013-04-01 04:59:00,
2013-04-01 01:04:00,40.1,35.1,29.35,NW,306,0.0,0.0,82,0.00,,---,0.00,VWS V13.01,2013-04-01 05:04:00,
2013-04-01 01:09:00,40.1,35.1,29.35,NW,306,0.0,0.0,82,0.00,,---,0.00,VWS V13.01,2013-04-01 05:09:00,
2013-04-01 01:14:00,40.1,35.1,29.35,NW,306,0.0,0.0,82,0.00,,---,0.00,VWS V13.01,2013-04-01 05:14:00,
2013-04-01 01:19:00,40.5,35.4,29.35,West,268,0.0,0.0,82,0.00,,---,0.00,VWS V13.01,2013-04-01 05:19:00,
2013-04-01 01:24:00,40.6,35.9,29.35,WSW,242,0.0,0.0,83,0.00,,---,0.00,VWS V13.01,2013-04-01 05:24:00,
2013-04-01 01:29:00,41.2,36.7,29.32,South,191,0.0,0.0,84,0.00,,---,0.00,VWS V13.01,2013-04-01 05:29:00,
2013-04-01 01:34:00,41.0,36.8,29.32,South,191,0.0,0.0,85,0.00,,---,0.00,VWS V13.01,2013-04-01 05:34:00,
2013-04-01 01:40:00,41.2,37.3,29.32,SSW,211,0.0,0.0,86,0.00,,---,0.00,VWS V13.01,2013-04-01 05:40:00,
2013-04-01 01:45:00,41.2,37.3,29.32,SW,228,0.0,0.0,86,0.00,,---,0.00,VWS V13.01,2013-04-01 05:45:00,
2013-04-01 01:50:00,41.4,37.8,29.32,SW,219,0.0,0.0,87,0.00,,---,0.00,VWS V13.01,2013-04-01 05:50:00,
2013-04-01 01:55:00,41.4,38.1,29.32,SSW,213,0.0,0.0,88,0.00,,---,0.00,VWS V13.01,2013-04-01 05:55:00,
2013-04-01 02:00:00,41.5,38.3,29.32,SW,214,0.0,0.0,88,0.00,,---,0.00,VWS V13.01,2013-04-01 06:00:00,
2013-04-01 02:06:00,41.5,38.3,29.32,SW,236,0.0,0.0,88,0.00,,---,0.00,VWS V13.01,2013-04-01 06:06:00,
2013-04-01 02:11:00,41.4,38.4,29.32,SW,233,5.4,7.2,89,0.00,,---,0.00,VWS V13.01,2013-04-01 06:11:00,
2013-04-01 02:16:00,41.4,38.4,29.32,WSW,253,5.4,7.2,89,0.00,,---,0.00,VWS V13.01,2013-04-01 06:16:00,
2013-04-01 02:21:00,41.2,38.2,29.32,WSW,257,4.7,6.3,89,0.00,,---,0.00,VWS V13.01,2013-04-01 06:21:00,
2013-04-01 02:27:00,41.0,38.3,29.29,WSW,245,0.0,0.0,90,0.00,,---,0.00,VWS V13.01,2013-04-01 06:27:00,
2013-04-01 02:32:00,40.8,38.1,29.29,SW,227,4.0,5.4,90,0.00,,---,0.00,VWS V13.01,2013-04-01 06:32:00,
2013-04-01 02:37:00,41.0,38.3,29.29,WSW,245,0.0,0.0,90,0.00,,---,0.00,VWS V13.01,2013-04-01 06:37:00,
2013-04-01 02:42:00,40.6,38.2,29.29,WSW,247,7.4,9.8,91,0.00,,---,0.00,VWS V13.01,2013-04-01 06:42:00,
2013-04-01 02:47:00,40.8,38.4,29.29,SW,236,5.4,7.2,91,0.00,,---,0.00,VWS V13.01,2013-04-01 06:47:00,
2013-04-01 02:52:00,40.6,38.2,29.29,WSW,253,4.7,6.3,91,0.00,,---,0.00,VWS V13.01,2013-04-01 06:52:00,
2013-04-01 02:57:00,40.6,38.5,29.29,WSW,245,0.0,0.0,92,0.00,,---,0.00,VWS V13.01,2013-04-01 06:57:00,
2013-04-01 03:03:00,40.5,38.3,29.29,SW,235,0.0,0.0,92,0.00,,---,0.00,VWS V13.01,2013-04-01 07:03:00,
2013-04-01 03:08:00,40.5,38.3,29.29,WSW,246,0.0,0.0,92,0.00,,---,0.00,VWS V13.01,2013-04-01 07:08:00,
2013-04-01 03:13:00,40.5,38.3,29.29,WSW,238,0.0,0.0,92,0.00,,---,0.00,VWS V13.01,2013-04-01 07:13:00,
2013-04-01 03:18:00,40.5,38.3,29.29,WSW,240,4.0,5.4,92,0.00,,---,0.00,VWS V13.01,2013-04-01 07:18:00,
2013-04-01 03:23:00,40.3,38.2,29.29,WSW,254,0.0,0.0,92,0.00,,---,0.00,VWS V13.01,2013-04-01 07:23:00,
2013-04-01 03:28:00,40.5,38.3,29.29,WSW,247,3.4,4.5,92,0.00,,---,0.00,VWS V13.01,2013-04-01 07:28:00,
2013-04-01 03:34:00,40.5,38.3,29.29,SW,226,0.0,0.0,92,0.00,,---,0.00,VWS V13.01,2013-04-01 07:34:00,
2013-04-01 03:39:00,40.5,38.3,29.29,SW,214,3.4,4.5,92,0.00,,---,0.00,VWS V13.01,2013-04-01 07:39:00,
2013-04-01 03:45:00,40.3,38.4,29.26,SW,235,0.0,0.0,93,0.00,,---,0.00,VWS V13.01,2013-04-01 07:45:00,
2013-04-01 03:51:00,40.5,38.6,29.26,SSW,205,4.7,6.3,93,0.00,,---,0.00,VWS V13.01,2013-04-01 07:51:00,
2013-04-01 03:56:00,40.5,38.6,29.26,West,265,5.4,7.2,93,0.00,,---,0.00,VWS V13.01,2013-04-01 07:56:00,
2013-04-01 04:01:00,40.5,38.6,29.26,SW,227,4.0,5.4,93,0.00,,---,0.00,VWS V13.01,2013-04-01 08:01:00,
2013-04-01 04:06:00,40.5,38.6,29.26,SSW,204,0.0,0.0,93,0.00,,---,0.00,VWS V13.01,2013-04-01 08:06:00,
2013-04-01 04:12:00,40.5,38.6,29.26,WSW,237,4.7,6.3,93,0.00,,---,0.00,VWS V13.01,2013-04-01 08:12:00,
2013-04-01 04:17:00,40.5,38.6,29.26,South,188,8.7,11.6,93,0.00,,---,0.00,VWS V13.01,2013-04-01 08:17:00,
2013-04-01 04:23:00,40.5,38.3,29.26,WSW,241,6.0,8.1,92,0.00,,---,0.00,VWS V13.01,2013-04-01 08:23:00,
2013-04-01 04:29:00,40.5,38.3,29.26,WSW,247,6.0,8.1,92,0.00,,---,0.00,VWS V13.01,2013-04-01 08:29:00,
2013-04-01 04:34:00,40.5,38.0,29.26,WSW,241,4.0,5.4,91,0.00,,---,0.00,VWS V13.01,2013-04-01 08:34:00,
2013-04-01 04:39:00,40.5,38.0,29.26,WSW,238,0.0,0.0,91,0.00,,---,0.00,VWS V13.01,2013-04-01 08:39:00,
2013-04-01 04:44:00,40.5,37.8,29.23,SW,226,4.0,5.4,90,0.00,,---,0.00,VWS V13.01,2013-04-01 08:44:00,
2013-04-01 04:50:00,40.3,37.6,29.23,WSW,237,0.0,0.0,90,0.00,,---,0.00,VWS V13.01,2013-04-01 08:50:00,
2013-04-01 04:56:00,40.3,37.3,29.23,WSW,245,6.0,8.1,89,0.00,,---,0.00,VWS V13.01,2013-04-01 08:56:00,
2013-04-01 05:01:00,40.3,37.0,29.23,WSW,254,4.0,5.4,88,0.00,,---,0.00,VWS V13.01,2013-04-01 09:01:00,
2013-04-01 05:08:00,40.1,36.5,29.23,WSW,238,6.0,8.1,87,0.00,,---,0.00,VWS V13.01,2013-04-01 09:08:00,
2013-04-01 05:14:00,40.3,36.7,29.23,SW,233,3.4,4.5,87,0.00,,---,0.00,VWS V13.01,2013-04-01 09:14:00,
2013-04-01 05:19:00,40.3,36.4,29.23,SW,234,4.0,5.4,86,0.00,,---,0.00,VWS V13.01,2013-04-01 09:19:00,
2013-04-01 05:25:00,40.1,36.0,29.23,WSW,238,0.0,0.0,85,0.00,,---,0.00,VWS V13.01,2013-04-01 09:25:00,
2013-04-01 05:31:00,40.1,36.0,29.23,SW,226,4.0,5.4,85,0.00,,---,0.00,VWS V13.01,2013-04-01 09:31:00,
2013-04-01 05:38:00,40.1,36.0,29.23,WSW,245,0.0,0.0,85,0.00,,---,0.00,VWS V13.01,2013-04-01 09:38:00,
2013-04-01 05:43:00,40.1,36.0,29.23,SW,221,0.0,0.0,85,0.00,,---,0.00,VWS V13.01,2013-04-01 09:43:00,
2013-04-01 05:49:00,40.1,36.0,29.23,WSW,246,5.4,7.2,85,0.00,,---,0.00,VWS V13.01,2013-04-01 09:49:00,
2013-04-01 05:54:00,39.9,35.5,29.23,SW,229,0.0,0.0,84,0.00,,---,0.00,VWS V13.01,2013-04-01 09:54:00,
2013-04-01 06:00:00,39.9,35.5,29.23,WSW,240,4.7,6.3,84,0.00,,---,0.00,VWS V13.01,2013-04-01 10:00:00,
2013-04-01 06:05:00,39.9,35.5,29.23,SW,226,0.0,0.0,84,0.00,,---,0.00,VWS V13.01,2013-04-01 10:05:00,
2013-04-01 06:11:00,40.1,35.7,29.23,SW,228,0.0,0.0,84,0.00,,---,0.00,VWS V13.01,2013-04-01 10:11:00,
2013-04-01 06:16:00,40.1,35.7,29.23,SW,228,4.0,5.4,84,0.00,,---,0.00,VWS V13.01,2013-04-01 10:16:00,
2013-04-01 06:21:00,40.1,35.7,29.23,WSW,241,0.0,0.0,84,0.00,,---,0.00,VWS V13.01,2013-04-01 10:21:00,
2013-04-01 06:26:00,39.9,35.2,29.23,WSW,246,0.0,0.0,83,0.00,,---,0.00,VWS V13.01,2013-04-01 10:26:00,
2013-04-01 06:31:00,40.1,35.7,29.23,WNW,284,0.0,0.0,84,0.00,,---,0.00,VWS V13.01,2013-04-01 10:31:00,
2013-04-01 06:37:00,40.1,35.4,29.23,SW,232,4.0,5.4,83,0.00,,---,0.00,VWS V13.01,2013-04-01 10:37:00,
2013-04-01 06:42:00,39.9,35.2,29.23,SW,236,0.0,0.0,83,0.00,,---,0.00,VWS V13.01,2013-04-01 10:42:00,
2013-04-01 06:47:00,39.9,35.2,29.23,WNW,290,0.0,0.0,83,0.00,,---,0.00,VWS V13.01,2013-04-01 10:47:00,
2013-04-01 06:52:00,39.7,35.0,29.23,WNW,295,0.0,0.0,83,0.00,,---,0.00,VWS V13.01,2013-04-01 10:52:00,
2013-04-01 06:58:00,39.9,34.9,29.21,SW,233,4.0,5.4,82,0.00,,---,0.00,VWS V13.01,2013-04-01 10:58:00,
2013-04-01 07:03:00,39.9,34.9,29.21,SSW,211,0.0,0.0,82,0.00,,---,0.00,VWS V13.01,2013-04-01 11:03:00,
2013-04-01 07:08:00,40.3,35.2,29.21,WSW,244,0.0,0.0,82,0.00,,---,0.00,VWS V13.01,2013-04-01 11:08:00,
2013-04-01 07:14:00,40.5,35.4,29.21,WSW,257,0.0,0.0,82,0.00,,---,0.00,VWS V13.01,2013-04-01 11:14:00,
2013-04-01 07:19:00,40.5,35.7,29.21,West,281,0.0,0.0,83,0.00,,---,0.00,VWS V13.01,2013-04-01 11:19:00,
2013-04-01 07:24:00,40.5,35.4,29.21,West,277,0.0,0.0,82,0.00,,---,0.00,VWS V13.01,2013-04-01 11:24:00,
2013-04-01 07:29:00,40.6,35.6,29.21,WSW,241,0.0,0.0,82,0.00,,---,0.00,VWS V13.01,2013-04-01 11:29:00,
2013-04-01 07:35:00,40.6,35.6,29.21,WSW,243,4.0,5.4,82,0.00,,---,0.00,VWS V13.01,2013-04-01 11:35:00,
2013-04-01 07:40:00,40.8,34.8,29.21,WSW,247,4.0,5.4,79,0.00,,---,0.00,VWS V13.01,2013-04-01 11:40:00,
2013-04-01 07:45:00,41.0,34.0,29.21,WSW,240,7.4,9.8,76,0.00,,---,0.00,VWS V13.01,2013-04-01 11:45:00,
2013-04-01 07:51:00,41.5,31.4,29.21,SW,222,0.0,0.0,67,0.00,,---,0.00,VWS V13.01,2013-04-01 11:51:00,
2013-04-01 07:57:00,41.5,26.1,29.21,WSW,247,0.0,0.0,54,0.00,,---,0.00,VWS V13.01,2013-04-01 11:57:00,
2013-04-01 08:03:00,41.5,24.3,29.21,WSW,237,4.7,6.3,50,0.00,,---,0.00,VWS V13.01,2013-04-01 12:03:00,
2013-04-01 08:08:00,41.5,24.3,29.21,WSW,244,4.0,5.4,50,0.00,,---,0.00,VWS V13.01,2013-04-01 12:08:00,
2013-04-01 08:13:00,41.7,24.5,29.21,West,265,0.0,0.0,50,0.00,,---,0.00,VWS V13.01,2013-04-01 12:13:00,
2013-04-01 08:19:00,41.7,24.0,29.21,WSW,243,0.0,0.0,49,0.00,,---,0.00,VWS V13.01,2013-04-01 12:19:00,
2013-04-01 08:25:00,41.7,24.0,29.21,WSW,247,5.4,7.2,49,0.00,,---,0.00,VWS V13.01,2013-04-01 12:25:00,
2013-04-01 08:30:00,42.4,23.1,29.21,NW,314,5.4,7.2,46,0.00,,---,0.00,VWS V13.01,2013-04-01 12:30:00,
2013-04-01 08:35:00,42.3,21.4,29.21,West,267,7.4,9.8,43,0.00,,---,0.00,VWS V13.01,2013-04-01 12:35:00,
2013-04-01 08:42:00,42.3,20.8,29.21,SW,234,0.0,0.0,42,0.00,,---,0.00,VWS V13.01,2013-04-01 12:42:00,
2013-04-01 08:47:00,42.1,21.2,29.21,SW,233,0.0,0.0,43,0.00,,---,0.00,VWS V13.01,2013-04-01 12:47:00,
2013-04-01 08:53:00,41.5,21.8,29.21,WNW,287,5.4,7.2,45,0.00,,---,0.00,VWS V13.01,2013-04-01 12:53:00,
2013-04-01 08:58:00,41.2,22.5,29.21,West,278,6.0,8.1,47,0.00,,---,0.00,VWS V13.01,2013-04-01 12:58:00,
2013-04-01 09:03:00,41.0,23.8,29.21,West,266,4.7,6.3,50,0.00,,---,0.00,VWS V13.01,2013-04-01 13:03:00,
2013-04-01 09:08:00,41.0,24.3,29.21,WSW,258,4.7,6.3,51,0.00,,---,0.00,VWS V13.01,2013-04-01 13:08:00,
2013-04-01 09:14:00,41.2,24.9,29.21,West,281,0.0,0.0,52,0.00,,---,0.00,VWS V13.01,2013-04-01 13:14:00,
2013-04-01 09:19:00,41.0,25.6,29.21,West,272,5.4,7.2,54,0.00,,---,0.00,VWS V13.01,2013-04-01 13:19:00,
2013-04-01 09:24:00,41.2,28.0,29.21,West,276,3.4,4.5,59,0.00,,---,0.00,VWS V13.01,2013-04-01 13:24:00,
2013-04-01 09:30:00,41.4,29.7,29.21,West,263,4.0,5.4,63,0.00,,---,0.00,VWS V13.01,2013-04-01 13:30:00,
2013-04-01 09:36:00,41.5,30.7,29.21,NW,310,8.1,10.7,65,0.00,,---,0.00,VWS V13.01,2013-04-01 13:36:00,
2013-04-01 09:41:00,41.5,30.7,29.21,WNW,303,4.7,6.3,65,0.00,,---,0.00,VWS V13.01,2013-04-01 13:41:00,
2013-04-01 09:46:00,41.5,31.0,29.21,West,272,5.4,7.2,66,0.00,,---,0.00,VWS V13.01,2013-04-01 13:46:00,
2013-04-01 09:52:00,41.5,31.4,29.21,West,274,5.4,7.2,67,0.00,,---,0.00,VWS V13.01,2013-04-01 13:52:00,
2013-04-01 09:58:00,41.7,32.0,29.21,NW,304,4.7,6.3,68,0.00,,---,0.00,VWS V13.01,2013-04-01 13:58:00,
2013-04-01 10:03:00,41.5,31.8,29.21,WNW,297,8.7,11.6,68,0.00,,---,0.00,VWS V13.01,2013-04-01 14:03:00,
2013-04-01 10:09:00,41.4,32.3,29.21,WNW,297,7.4,9.8,70,0.00,,---,0.00,VWS V13.01,2013-04-01 14:09:00,
2013-04-01 10:14:00,41.7,33.0,29.21,West,276,12.4,16.6,71,0.00,,---,0.00,VWS V13.01,2013-04-01 14:14:00,
2013-04-01 10:20:00,42.3,32.1,29.21,WNW,299,8.7,11.6,67,0.00,,---,0.00,VWS V13.01,2013-04-01 14:20:00,
2013-04-01 10:26:00,42.8,29.1,29.21,WNW,293,10.7,14.3,58,0.00,,---,0.00,VWS V13.01,2013-04-01 14:26:00,
2013-04-01 10:32:00,43.5,26.6,29.21,WNW,297,6.0,8.1,51,0.00,,---,0.00,VWS V13.01,2013-04-01 14:32:00,
2013-04-01 10:37:00,43.3,26.0,29.21,WNW,284,7.4,9.8,50,0.00,,---,0.00,VWS V13.01,2013-04-01 14:37:00,
2013-04-01 10:42:00,43.0,25.6,29.18,West,272,0.0,0.0,50,0.00,,---,0.00,VWS V13.01,2013-04-01 14:42:00,
2013-04-01 10:47:00,42.8,25.9,29.18,NNW,342,4.7,6.3,51,0.00,,---,0.00,VWS V13.01,2013-04-01 14:47:00,
2013-04-01 10:53:00,42.8,26.4,29.18,WNW,302,4.7,6.3,52,0.00,,---,0.00,VWS V13.01,2013-04-01 14:53:00,
2013-04-01 10:59:00,42.8,25.9,29.18,West,279,4.7,6.3,51,0.00,,---,0.00,VWS V13.01,2013-04-01 14:59:00,
2013-04-01 11:04:00,43.9,26.0,29.18,North,357,6.0,8.1,49,0.00,,---,0.00,VWS V13.01,2013-04-01 15:04:00,
2013-04-01 11:10:00,44.4,22.8,29.18,WNW,302,10.1,13.4,42,0.00,,---,0.00,VWS V13.01,2013-04-01 15:10:00,
2013-04-01 11:15:00,45.9,22.3,29.18,West,271,11.4,15.2,39,0.00,,---,0.00,VWS V13.01,2013-04-01 15:15:00,
2013-04-01 11:20:00,47.5,19.1,29.18,NW,319,6.0,8.1,32,0.00,,---,0.00,VWS V13.01,2013-04-01 15:20:00,
2013-04-01 11:25:00,47.3,18.2,29.18,NNW,333,10.1,13.4,31,0.00,,---,0.00,VWS V13.01,2013-04-01 15:25:00,
2013-04-01 11:30:00,46.9,17.9,29.18,North,4,8.1,10.7,31,0.00,,---,0.00,VWS V13.01,2013-04-01 15:30:00,
2013-04-01 11:35:00,48.0,17.3,29.18,NNE,12,5.4,7.2,29,0.00,,---,0.00,VWS V13.01,2013-04-01 15:35:00,
2013-04-01 11:40:00,45.5,15.9,29.18,NNW,341,8.1,10.7,30,0.00,,---,0.00,VWS V13.01,2013-04-01 15:40:00,
2013-04-01 11:45:00,45.5,15.1,29.18,NNW,329,8.7,11.6,29,0.00,,---,0.00,VWS V13.01,2013-04-01 15:45:00,
2013-04-01 11:51:00,45.5,14.3,29.18,NW,318,12.4,16.6,28,0.00,,---,0.00,VWS V13.01,2013-04-01 15:51:00,
2013-04-01 11:56:00,44.8,13.7,29.18,North,353,24.5,32.7,28,0.00,,---,0.00,VWS V13.01,2013-04-01 15:56:00,
2013-04-01 12:01:00,45.0,13.8,29.18,NW,321,12.1,16.1,28,0.00,,---,0.00,VWS V13.01,2013-04-01 16:01:00,
2013-04-01 12:07:00,45.5,14.3,29.18,NW,317,15.8,21.0,28,0.00,,---,0.00,VWS V13.01,2013-04-01 16:07:00,
2013-04-01 12:12:00,44.8,12.9,29.18,NW,314,22.5,30.0,27,0.00,,---,0.00,VWS V13.01,2013-04-01 16:12:00,
2013-04-01 12:18:00,45.5,13.5,29.18,North,349,8.1,10.7,27,0.00,,---,0.00,VWS V13.01,2013-04-01 16:18:00,
2013-04-01 12:23:00,46.2,12.4,29.18,WNW,290,6.0,8.1,25,0.00,,---,0.00,VWS V13.01,2013-04-01 16:23:00,
2013-04-01 12:28:00,47.3,10.4,29.18,NW,320,8.1,10.7,22,0.00,,---,0.00,VWS V13.01,2013-04-01 16:28:00,
2013-04-01 12:34:00,47.3,10.4,29.18,NW,319,12.1,16.1,22,0.00,,---,0.00,VWS V13.01,2013-04-01 16:34:00,
2013-04-01 12:40:00,47.1,10.2,29.18,WNW,291,12.4,16.6,22,0.00,,---,0.00,VWS V13.01,2013-04-01 16:40:00,
2013-04-01 12:45:00,45.5,8.9,29.18,North,7,13.1,17.4,22,0.00,,---,0.00,VWS V13.01,2013-04-01 16:45:00,
2013-04-01 12:51:00,45.5,8.9,29.18,WSW,249,14.4,19.2,22,0.00,,---,0.00,VWS V13.01,2013-04-01 16:51:00,
2013-04-01 12:57:00,47.5,10.6,29.18,West,266,9.4,12.5,22,0.00,,---,0.00,VWS V13.01,2013-04-01 16:57:00,
2013-04-01 13:02:00,46.0,9.3,29.18,NNW,342,9.4,12.5,22,0.00,,---,0.00,VWS V13.01,2013-04-01 17:02:00,
2013-04-01 13:08:00,45.0,8.4,29.18,NW,323,11.4,15.2,22,0.00,,---,0.00,VWS V13.01,2013-04-01 17:08:00,
2013-04-01 13:13:00,44.6,8.1,29.18,NW,312,13.1,17.4,22,0.00,,---,0.00,VWS V13.01,2013-04-01 17:13:00,
2013-04-01 13:18:00,43.3,8.0,29.18,WNW,301,13.8,18.3,23,0.00,,---,0.00,VWS V13.01,2013-04-01 17:18:00,
2013-04-01 13:24:00,43.5,8.2,29.18,NNW,331,16.4,21.9,23,0.00,,---,0.00,VWS V13.01,2013-04-01 17:24:00,
2013-04-01 13:29:00,44.1,8.6,29.18,NW,312,8.7,11.6,23,0.00,,---,0.00,VWS V13.01,2013-04-01 17:29:00,
2013-04-01 13:35:00,45.5,6.8,29.18,West,278,4.7,6.3,20,0.00,,---,0.00,VWS V13.01,2013-04-01 17:35:00,
2013-04-01 13:40:00,44.8,6.2,29.18,North,1,21.8,29.1,20,0.00,,---,0.00,VWS V13.01,2013-04-01 17:40:00,
2013-04-01 13:45:00,43.0,4.7,29.21,NW,315,13.1,17.4,20,0.00,,---,0.00,VWS V13.01,2013-04-01 17:45:00,
2013-04-01 13:50:00,44.2,5.7,29.21,NNW,331,23.2,30.9,20,0.00,,---,0.00,VWS V13.01,2013-04-01 17:50:00,
2013-04-01 13:55:00,44.2,5.7,29.21,NW,325,12.4,16.6,20,0.00,,---,0.00,VWS V13.01,2013-04-01 17:55:00,
2013-04-01 14:01:00,43.2,7.9,29.21,NNW,333,15.1,20.1,23,0.00,,---,0.00,VWS V13.01,2013-04-01 18:01:00,
2013-04-01 14:06:00,41.5,6.5,29.21,NE,42,21.1,28.2,23,0.00,,---,0.00,VWS V13.01,2013-04-01 18:06:00,
2013-04-01 14:12:00,40.6,5.8,29.21,WNW,301,23.2,30.9,23,0.00,,---,0.00,VWS V13.01,2013-04-01 18:12:00,
2013-04-01 14:17:00,41.5,6.5,29.21,NW,312,15.1,20.1,23,0.00,,---,0.00,VWS V13.01,2013-04-01 18:17:00,
2013-04-01 14:23:00,41.7,4.7,29.21,NNW,342,16.4,21.9,21,0.00,,---,0.00,VWS V13.01,2013-04-01 18:23:00,
2013-04-01 14:29:00,40.3,3.5,29.21,NNW,346,45.3,60.4,21,0.00,,---,0.00,VWS V13.01,2013-04-01 18:29:00,
2013-04-01 14:34:00,42.1,5.0,29.21,NNW,329,19.1,25.5,21,0.00,,---,0.00,VWS V13.01,2013-04-01 18:34:00,
2013-04-01 14:39:00,41.0,4.1,29.21,NE,50,17.1,22.8,21,0.00,,---,0.00,VWS V13.01,2013-04-01 18:39:00,
2013-04-01 14:45:00,41.4,4.4,29.23,North,357,26.2,34.9,21,0.00,,---,0.00,VWS V13.01,2013-04-01 18:45:00,
2013-04-01 14:50:00,41.0,4.1,29.23,North,357,15.1,20.1,21,0.00,,---,0.00,VWS V13.01,2013-04-01 18:50:00,
2013-04-01 14:55:00,40.5,3.6,29.23,NNE,15,19.1,25.5,21,0.00,,---,0.00,VWS V13.01,2013-04-01 18:55:00,
2013-04-01 15:00:00,42.3,5.1,29.23,NNE,25,15.8,21.0,21,0.00,,---,0.00,VWS V13.01,2013-04-01 19:00:00,
2013-04-01 15:05:00,39.2,2.6,29.23,NNW,335,39.9,53.2,21,0.00,,---,0.00,VWS V13.01,2013-04-01 19:05:00,
2013-04-01 15:11:00,38.1,1.6,29.23,NNW,334,26.2,34.9,21,0.00,,---,0.00,VWS V13.01,2013-04-01 19:11:00,
2013-04-01 15:16:00,39.7,3.0,29.23,NNE,24,9.4,12.5,21,0.00,,---,0.00,VWS V13.01,2013-04-01 19:16:00,
2013-04-01 15:21:00,42.3,5.1,29.23,WNW,300,12.4,16.6,21,0.00,,---,0.00,VWS V13.01,2013-04-01 19:21:00,
2013-04-01 15:26:00,40.6,3.8,29.23,NNW,343,12.4,16.6,21,0.00,,---,0.00,VWS V13.01,2013-04-01 19:26:00,
2013-04-01 15:31:00,39.7,3.0,29.23,NW,318,28.2,37.6,21,0.00,,---,0.00,VWS V13.01,2013-04-01 19:31:00,
2013-04-01 15:36:00,38.8,0.1,29.23,North,0,19.8,26.4,19,0.00,,---,0.00,VWS V13.01,2013-04-01 19:36:00,
2013-04-01 15:41:00,39.0,0.3,29.23,NNW,329,29.5,39.4,19,0.00,,---,0.00,VWS V13.01,2013-04-01 19:41:00,
2013-04-01 15:47:00,39.7,-0.3,29.23,NW,315,13.1,17.4,18,0.00,,---,0.00,VWS V13.01,2013-04-01 19:47:00,
2013-04-01 15:52:00,41.0,0.8,29.23,NW,306,20.5,27.3,18,0.00,,---,0.00,VWS V13.01,2013-04-01 19:52:00,
2013-04-01 15:57:00,42.3,1.8,29.26,NNE,21,22.5,30.0,18,0.00,,---,0.00,VWS V13.01,2013-04-01 19:57:00,
2013-04-01 16:04:00,39.0,0.3,29.26,North,6,19.8,26.4,19,0.00,,---,0.00,VWS V13.01,2013-04-01 20:04:00,
2013-04-01 16:09:00,38.1,-0.5,29.26,NW,325,23.2,30.9,19,0.00,,---,0.00,VWS V13.01,2013-04-01 20:09:00,
2013-04-01 16:14:00,43.2,2.5,29.26,NNW,329,6.7,8.9,18,0.00,,---,0.00,VWS V13.01,2013-04-01 20:14:00,
2013-04-01 16:19:00,39.4,-0.6,29.26,NW,308,12.1,16.1,18,0.00,,---,0.00,VWS V13.01,2013-04-01 20:19:00,
2013-04-01 16:25:00,40.1,0.0,29.26,NNW,346,17.1,22.8,18,0.00,,---,0.00,VWS V13.01,2013-04-01 20:25:00,
2013-04-01 16:30:00,37.6,-0.9,29.26,NW,316,31.5,42.1,19,0.00,,---,0.00,VWS V13.01,2013-04-01 20:30:00,
2013-04-01 16:35:00,36.9,-1.5,29.26,NNE,19,29.5,39.4,19,0.00,,---,0.00,VWS V13.01,2013-04-01 20:35:00,
2013-04-01 16:41:00,36.1,-2.1,29.29,North,357,12.1,16.1,19,0.00,,---,0.00,VWS V13.01,2013-04-01 20:41:00,
2013-04-01 16:47:00,37.0,-1.4,29.29,NNE,17,25.2,33.6,19,0.00,,---,0.00,VWS V13.01,2013-04-01 20:47:00,
2013-04-01 16:54:00,37.6,-0.9,29.29,North,0,22.5,30.0,19,0.00,,---,0.00,VWS V13.01,2013-04-01 20:54:00,
2013-04-01 16:59:00,39.4,-0.6,29.29,North,357,11.4,15.2,18,0.00,,---,0.00,VWS V13.01,2013-04-01 20:59:00,
2013-04-01 17:05:00,35.4,-1.6,29.29,North,2,11.4,15.2,20,0.00,,---,0.00,VWS V13.01,2013-04-01 21:05:00,
2013-04-01 17:11:00,32.4,0.5,29.29,North,0,29.5,39.4,25,0.00,,---,0.00,VWS V13.01,2013-04-01 21:11:00,
2013-04-01 17:16:00,35.8,2.5,29.32,NNW,341,8.1,10.7,24,0.00,,---,0.00,VWS V13.01,2013-04-01 21:16:00,
2013-04-01 17:22:00,36.9,1.6,29.32,North,0,11.4,15.2,22,0.00,,---,0.00,VWS V13.01,2013-04-01 21:22:00,
2013-04-01 17:27:00,35.2,0.2,29.32,North,357,16.4,21.9,22,0.00,,---,0.00,VWS V13.01,2013-04-01 21:27:00,
2013-04-01 17:32:00,36.0,0.8,29.32,North,0,23.2,30.9,22,0.00,,---,0.00,VWS V13.01,2013-04-01 21:32:00,
2013-04-01 17:38:00,37.9,1.5,29.32,WNW,289,6.0,8.1,21,0.00,,---,0.00,VWS V13.01,2013-04-01 21:38:00,
2013-04-01 17:43:00,37.2,-1.2,29.32,NNW,328,12.1,16.1,19,0.00,,---,0.00,VWS V13.01,2013-04-01 21:43:00,
2013-04-01 17:48:00,37.4,-1.1,29.32,North,3,15.1,20.1,19,0.00,,---,0.00,VWS V13.01,2013-04-01 21:48:00,
2013-04-01 17:53:00,36.7,-1.7,29.32,NNW,333,9.4,12.5,19,0.00,,---,0.00,VWS V13.01,2013-04-01 21:53:00,
2013-04-01 17:58:00,37.0,-1.4,29.32,NNW,331,19.8,26.4,19,0.00,,---,0.00,VWS V13.01,2013-04-01 21:58:00,
2013-04-01 18:04:00,36.0,-2.3,29.32,West,279,23.2,30.9,19,0.00,,---,0.00,VWS V13.01,2013-04-01 22:04:00,
2013-04-01 18:09:00,34.3,-2.6,29.32,NNW,335,9.4,12.5,20,0.00,,---,0.00,VWS V13.01,2013-04-01 22:09:00,
2013-04-01 18:14:00,34.2,-2.7,29.32,NNW,337,15.1,20.1,20,0.00,,---,0.00,VWS V13.01,2013-04-01 22:14:00,
2013-04-01 18:19:00,35.1,-2.0,29.32,WNW,292,18.5,24.6,20,0.00,,---,0.00,VWS V13.01,2013-04-01 22:19:00,
2013-04-01 18:24:00,35.6,-2.6,29.32,WNW,287,19.8,26.4,19,0.00,,---,0.00,VWS V13.01,2013-04-01 22:24:00,
2013-04-01 18:30:00,35.8,-2.4,29.32,NNW,342,22.5,30.0,19,0.00,,---,0.00,VWS V13.01,2013-04-01 22:30:00,
2013-04-01 18:35:00,35.6,-2.6,29.32,NNW,330,25.5,34.0,19,0.00,,---,0.00,VWS V13.01,2013-04-01 22:35:00,
2013-04-01 18:40:00,35.1,-2.0,29.32,NW,321,26.2,34.9,20,0.00,,---,0.00,VWS V13.01,2013-04-01 22:40:00,
2013-04-01 18:45:00,33.3,-3.5,29.35,West,281,8.7,11.6,20,0.00,,---,0.00,VWS V13.01,2013-04-01 22:45:00,
2013-04-01 18:51:00,32.7,-3.9,29.35,North,350,19.1,25.5,20,0.00,,---,0.00,VWS V13.01,2013-04-01 22:51:00,
2013-04-01 18:56:00,32.5,-4.1,29.35,North,350,16.4,21.9,20,0.00,,---,0.00,VWS V13.01,2013-04-01 22:56:00,
2013-04-01 19:01:00,31.8,-4.7,29.35,North,357,24.5,32.7,20,0.00,,---,0.00,VWS V13.01,2013-04-01 23:01:00,
2013-04-01 19:07:00,30.9,-5.4,29.35,NW,326,19.1,25.5,20,0.00,,---,0.00,VWS V13.01,2013-04-01 23:07:00,
2013-04-01 19:12:00,30.0,-3.3,29.38,NNW,340,15.8,21.0,23,0.00,,---,0.00,VWS V13.01,2013-04-01 23:12:00,
2013-04-01 19:17:00,29.7,-3.6,29.38,NNW,328,23.2,30.9,23,0.00,,---,0.00,VWS V13.01,2013-04-01 23:17:00,
2013-04-01 19:22:00,29.7,-3.6,29.38,NNW,348,16.4,21.9,23,0.00,,---,0.00,VWS V13.01,2013-04-01 23:22:00,
2013-04-01 19:27:00,29.1,3.6,29.38,North,357,8.1,10.7,33,0.00,,---,0.00,VWS V13.01,2013-04-01 23:27:00,
2013-04-01 19:33:00,28.6,9.9,29.38,NE,35,21.8,29.1,45,0.00,,---,0.00,VWS V13.01,2013-04-01 23:33:00,
2013-04-01 19:38:00,27.3,13.7,29.38,North,5,19.8,26.4,56,0.00,,---,0.00,VWS V13.01,2013-04-01 23:38:00,
2013-04-01 19:43:00,27.3,12.5,29.38,North,8,7.4,9.8,53,0.00,,---,0.00,VWS V13.01,2013-04-01 23:43:00,
2013-04-01 19:49:00,27.3,9.8,29.38,NW,311,9.4,12.5,47,0.00,,---,0.00,VWS V13.01,2013-04-01 23:49:00,
2013-04-01 19:54:00,27.9,7.2,29.38,North,350,17.8,23.7,41,0.00,,---,0.00,VWS V13.01,2013-04-01 23:54:00,
2013-04-01 19:59:00,28.0,4.5,29.41,NE,34,9.4,12.5,36,0.00,,---,0.00,VWS V13.01,2013-04-01 23:59:00,
2013-04-01 20:04:00,28.0,3.3,29.41,NNW,328,9.4,12.5,34,0.00,,---,0.00,VWS V13.01,2013-04-02 00:04:00,
2013-04-01 20:10:00,28.4,3.0,29.41,NW,318,12.1,16.1,33,0.00,,---,0.00,VWS V13.01,2013-04-02 00:10:00,
2013-04-01 20:15:00,28.6,1.1,29.41,North,357,19.1,25.5,30,0.00,,---,0.00,VWS V13.01,2013-04-02 00:15:00,
2013-04-01 20:21:00,28.0,-0.9,29.41,NNE,17,19.1,25.5,28,0.00,,---,0.00,VWS V13.01,2013-04-02 00:21:00,
2013-04-01 20:27:00,27.7,1.0,29.41,North,357,13.1,17.4,31,0.00,,---,0.00,VWS V13.01,2013-04-02 00:27:00,
2013-04-01 20:32:00,27.5,0.8,29.41,NNE,19,15.1,20.1,31,0.00,,---,0.00,VWS V13.01,2013-04-02 00:32:00,
2013-04-01 20:38:00,27.5,-1.3,29.41,NNE,12,12.1,16.1,28,0.00,,---,0.00,VWS V13.01,2013-04-02 00:38:00,
2013-04-01 20:44:00,27.9,-2.6,29.41,North,6,8.7,11.6,26,0.00,,---,0.00,VWS V13.01,2013-04-02 00:44:00,
2013-04-01 20:49:00,27.9,-5.1,29.41,North,353,13.1,17.4,23,0.00,,---,0.00,VWS V13.01,2013-04-02 00:49:00,
2013-04-01 20:55:00,27.9,-5.1,29.41,North,357,11.4,15.2,23,0.00,,---,0.00,VWS V13.01,2013-04-02 00:55:00,
2013-04-01 21:00:00,27.9,-5.1,29.41,North,357,16.4,21.9,23,0.00,,---,0.00,VWS V13.01,2013-04-02 01:00:00,
2013-04-01 21:05:00,27.7,-5.3,29.41,North,2,15.1,20.1,23,0.00,,---,0.00,VWS V13.01,2013-04-02 01:05:00,
2013-04-01 21:11:00,27.0,-5.9,29.41,North,349,13.1,17.4,23,0.00,,---,0.00,VWS V13.01,2013-04-02 01:11:00,
2013-04-01 21:16:00,26.4,-3.8,29.44,NW,321,16.4,21.9,26,0.00,,---,0.00,VWS V13.01,2013-04-02 01:16:00,
2013-04-01 21:22:00,26.2,-4.0,29.44,NNE,24,17.1,22.8,26,0.00,,---,0.00,VWS V13.01,2013-04-02 01:22:00,
2013-04-01 21:27:00,26.1,-4.1,29.44,North,353,15.8,21.0,26,0.00,,---,0.00,VWS V13.01,2013-04-02 01:27:00,
2013-04-01 21:32:00,25.9,-5.9,29.44,NE,47,16.4,21.9,24,0.00,,---,0.00,VWS V13.01,2013-04-02 01:32:00,
2013-04-01 21:38:00,25.9,-5.9,29.44,North,357,11.4,15.2,24,0.00,,---,0.00,VWS V13.01,2013-04-02 01:38:00,
2013-04-01 21:43:00,25.3,-4.7,29.44,NNW,341,9.4,12.5,26,0.00,,---,0.00,VWS V13.01,2013-04-02 01:43:00,
2013-04-01 21:49:00,25.3,-6.4,29.44,NNW,338,11.4,15.2,24,0.00,,---,0.00,VWS V13.01,2013-04-02 01:49:00,
2013-04-01 21:54:00,25.3,-6.4,29.44,NNW,329,13.1,17.4,24,0.00,,---,0.00,VWS V13.01,2013-04-02 01:54:00,
2013-04-01 22:00:00,25.2,-6.6,29.44,NNW,346,13.8,18.3,24,0.00,,---,0.00,VWS V13.01,2013-04-02 02:00:00,
2013-04-01 22:05:00,25.2,-6.6,29.44,North,6,15.1,20.1,24,0.00,,---,0.00,VWS V13.01,2013-04-02 02:05:00,
2013-04-01 22:12:00,25.0,-9.4,29.44,North,357,8.1,10.7,21,0.00,,---,0.00,VWS V13.01,2013-04-02 02:12:00,
2013-04-01 22:17:00,25.2,-9.3,29.44,North,357,26.2,34.9,21,0.00,,---,0.00,VWS V13.01,2013-04-02 02:17:00,
2013-04-01 22:22:00,25.0,-9.4,29.44,North,3,12.1,16.1,21,0.00,,---,0.00,VWS V13.01,2013-04-02 02:22:00,
2013-04-01 22:28:00,25.0,-9.4,29.47,NW,322,19.8,26.4,21,0.00,,---,0.00,VWS V13.01,2013-04-02 02:28:00,
2013-04-01 22:34:00,24.8,-8.6,29.47,North,3,17.1,22.8,22,0.00,,---,0.00,VWS V13.01,2013-04-02 02:34:00,
2013-04-01 22:40:00,24.6,-8.8,29.47,NNW,345,18.5,24.6,22,0.00,,---,0.00,VWS V13.01,2013-04-02 02:40:00,
2013-04-01 22:45:00,24.6,-8.8,29.47,North,1,13.1,17.4,22,0.00,,---,0.00,VWS V13.01,2013-04-02 02:45:00,
2013-04-01 22:50:00,24.4,-8.9,29.47,NNE,32,15.8,21.0,22,0.00,,---,0.00,VWS V13.01,2013-04-02 02:50:00,
2013-04-01 22:55:00,24.1,-9.2,29.47,NNE,25,19.8,26.4,22,0.00,,---,0.00,VWS V13.01,2013-04-02 02:55:00,
2013-04-01 23:01:00,24.1,-9.2,29.47,North,9,12.4,16.6,22,0.00,,---,0.00,VWS V13.01,2013-04-02 03:01:00,
2013-04-01 23:07:00,23.9,-9.4,29.47,North,3,13.1,17.4,22,0.00,,---,0.00,VWS V13.01,2013-04-02 03:07:00,
2013-04-01 23:12:00,24.1,-9.2,29.47,NNW,342,19.1,25.5,22,0.00,,---,0.00,VWS V13.01,2013-04-02 03:12:00,
2013-04-01 23:17:00,23.7,-9.6,29.47,NNE,20,12.1,16.1,22,0.00,,---,0.00,VWS V13.01,2013-04-02 03:17:00,
2013-04-01 23:23:00,23.9,-9.4,29.47,NNE,31,19.8,26.4,22,0.00,,---,0.00,VWS V13.01,2013-04-02 03:23:00,
2013-04-01 23:29:00,23.4,-9.9,29.47,North,2,7.4,9.8,22,0.00,,---,0.00,VWS V13.01,2013-04-02 03:29:00,
2013-04-01 23:34:00,22.8,-10.3,29.47,North,5,8.7,11.6,22,0.00,,---,0.00,VWS V13.01,2013-04-02 03:34:00,
2013-04-01 23:39:00,23.0,-10.2,29.47,NNW,340,14.4,19.2,22,0.00,,---,0.00,VWS V13.01,2013-04-02 03:39:00,
2013-04-01 23:44:00,22.8,-10.3,29.47,NE,44,13.1,17.4,22,0.00,,---,0.00,VWS V13.01,2013-04-02 03:44:00,
2013-04-01 23:49:00,22.6,-10.5,29.47,NNW,342,9.4,12.5,22,0.00,,---,0.00,VWS V13.01,2013-04-02 03:49:00,
2013-04-01 23:55:00,22.8,-10.3,29.47,North,353,13.1,17.4,22,0.00,,---,0.00,VWS V13.01,2013-04-02 03:55:00,